Location: Unspecified
(49.2170°N, 0.0000°E)
Time: 15:51:08
(UTC+00:00)

Vanguard 1 - Pass Details

Date: 22 June 2021
Orbit: 651 x 3832 km, 34.2° (Epoch: 23 July)

Event Time Altitude Azimuth Distance (km) Brightness Sun altitude
Rises 22:46:42 0° 256° (WSW) 7,971 14.7 -15.4°
Reaches altitude 10° 22:52:33 10° 251° (WSW) 6,900 14.3 -15.7°
Maximum altitude 23:13:04 48° 187° (S) 3,651 12.5 -16.5°
Drops below altitude 10° 23:26:20 10° 118° (ESE) 4,620 13.1 -16.9°
Sets 23:29:21 0° 113° (ESE) 5,266 13.5 -17.0°
